When you browse on this site, cookies collect data to enhance your experience and personalize the content and advertising you see.
Visit our Privacy Policy to learn more. By continuing to use the site, you agree to this use of cookies and data.
  • In Portugal
  • List of Countries
  • For 7 days
  • Water Temperature
  • Satellite Maps
  • Weather Map
  • Weather Widgets
  • user-avatar
    Login

    Hourly Weather Bugojno

    Today, 21 March, Thursday

    Time Temperature Precipitation Wind Pressure Humidity
    00:00 +1°C° 0 mm 2 mps 720 mmHg 95%
    01:00 +1°C° 0 mm 1 mps 720 mmHg 95%
    02:00 +1°C° 0 mm 1 mps 720 mmHg 94%
    03:00 +1°C° 0 mm 1 mps 720 mmHg 94%
    04:00 -1°C° 0 mm 2 mps 720 mmHg 93%
    05:00 +1°C° 0 mm 1 mps 720 mmHg 92%
    06:00 +2°C° 0 mm 1 mps 720 mmHg 90%
    07:00 +2°C° 0 mm 2 mps 720 mmHg 89%
    08:00 +3°C° 0 mm 2 mps 721 mmHg 83%
    09:00 +5°C° 0 mm 2 mps 721 mmHg 78%
    10:00 +7°C° 0 mm 2 mps 721 mmHg 73%
    11:00 +8°C° 0 mm 2 mps 721 mmHg 71%
    12:00 +9°C° 0 mm 2 mps 721 mmHg 68%
    13:00 +12°C° 0 mm 2 mps 721 mmHg 65%
    14:00 +12°C° 0 mm 2 mps 721 mmHg 66%
    15:00 +12°C° 0 mm 2 mps 720 mmHg 66%
    16:00 +10°C° 0 mm 2 mps 720 mmHg 66%
    17:00 +8°C° 0 mm 2 mps 720 mmHg 73%
    18:00 +6°C° 0 mm 2 mps 720 mmHg 79%
    19:00 +4°C° 0 mm 2 mps 720 mmHg 85%
    20:00 +5°C° 0 mm 1 mps 720 mmHg 86%
    21:00 +4°C° 0 mm 1 mps 720 mmHg 87%
    22:00 +4°C° 0 mm 1 mps 720 mmHg 87%
    23:00 +3°C° 0 mm 1 mps 720 mmHg 87%

    Tomorrow, 22 March, Friday

    Time Temperature Precipitation Wind Pressure Humidity
    00:00 +3°C° 0 mm 1 mps 720 mmHg 87%
    01:00 +3°C° 0 mm 1 mps 720 mmHg 86%
    02:00 +3°C° 0 mm 1 mps 720 mmHg 85%
    03:00 +3°C° 0 mm 1 mps 720 mmHg 84%
    04:00 +3°C° 0 mm 1 mps 720 mmHg 83%
    05:00 +3°C° 0 mm 1 mps 720 mmHg 80%
    06:00 +4°C° 0 mm 1 mps 720 mmHg 77%
    07:00 +5°C° 0 mm 1 mps 720 mmHg 74%
    08:00 +7°C° 0 mm 1 mps 720 mmHg 67%
    09:00 +8°C° 0 mm 2 mps 720 mmHg 59%
    10:00 +10°C° 0 mm 2 mps 720 mmHg 52%
    11:00 +12°C° 0 mm 2 mps 720 mmHg 49%
    12:00 +13°C° 0 mm 2 mps 720 mmHg 47%
    13:00 +14°C° 0 mm 2 mps 720 mmHg 45%
    14:00 +14°C° 0 mm 2 mps 720 mmHg 47%
    15:00 +14°C° 0 mm 2 mps 719 mmHg 50%
    16:00 +13°C° 0 mm 2 mps 719 mmHg 53%
    17:00 +10°C° 0 mm 2 mps 718 mmHg 61%
    18:00 +8°C° 0 mm 2 mps 718 mmHg 68%
    19:00 +6°C° 0 mm 2 mps 718 mmHg 76%
    20:00 +6°C° 0 mm 1 mps 718 mmHg 78%
    21:00 +6°C° 0 mm 1 mps 718 mmHg 79%
    22:00 +5°C° 0 mm 1 mps 718 mmHg 80%
    23:00 +5°C° 0 mm 1 mps 718 mmHg 80%

    Day after tomorrow, 23 March, Saturday

    Time Temperature Precipitation Wind Pressure Humidity
    00:00 +5°C° 0 mm 1 mps 718 mmHg 79%
    01:00 +5°C° 0 mm 1 mps 718 mmHg 78%
    02:00 +5°C° 0 mm 1 mps 718 mmHg 79%
    03:00 +5°C° 0 mm 1 mps 717 mmHg 79%
    04:00 +4°C° 0 mm 1 mps 717 mmHg 80%
    05:00 +5°C° 0 mm 1 mps 717 mmHg 78%
    06:00 +6°C° 0 mm 1 mps 717 mmHg 77%
    07:00 +6°C° 0 mm 1 mps 717 mmHg 76%
    08:00 +9°C° 0 mm 1 mps 718 mmHg 70%
    09:00 +10°C° 0 mm 2 mps 718 mmHg 64%
    10:00 +13°C° 0 mm 2 mps 718 mmHg 57%
    11:00 +14°C° 0 mm 2 mps 718 mmHg 57%
    12:00 +15°C° 0 mm 2 mps 717 mmHg 56%
    13:00 +16°C° 0 mm 2 mps 717 mmHg 56%
    14:00 +16°C° 0 mm 2 mps 717 mmHg 58%
    15:00 +16°C° 0 mm 2 mps 717 mmHg 60%
    16:00 +15°C° 0 mm 2 mps 716 mmHg 62%
    17:00 +13°C° 0 mm 2 mps 716 mmHg 71%
    18:00 +10°C° 0 mm 2 mps 716 mmHg 79%
    19:00 +9°C° 0 mm 1 mps 716 mmHg 88%
    20:00 +8°C° 0 mm 1 mps 716 mmHg 90%
    21:00 +8°C° 0 mm 1 mps 716 mmHg 91%
    22:00 +7°C° 0 mm 1 mps 716 mmHg 93%
    23:00 +7°C° 0 mm 1 mps 716 mmHg 93%

    24 March, Sunday

    Time Temperature Precipitation Wind Pressure Humidity
    00:00 +7°C° 0 mm 1 mps 716 mmHg 93%
    01:00 +7°C° 0 mm 1 mps 716 mmHg 93%
    02:00 +6°C° 0 mm 1 mps 716 mmHg 93%
    03:00 +6°C° 0 mm 1 mps 716 mmHg 93%
    04:00 +5°C° 0 mm 0 mps 716 mmHg 92%
    05:00 +6°C° 0 mm 0 mps 716 mmHg 90%
    06:00 +6°C° 0 mm 0 mps 716 mmHg 88%
    07:00 +7°C° 0 mm 0 mps 716 mmHg 86%
    08:00 +10°C° 0 mm 1 mps 716 mmHg 74%
    09:00 +13°C° 0 mm 1 mps 716 mmHg 62%
    10:00 +15°C° 0 mm 1 mps 717 mmHg 50%
    11:00 +18°C° 0 mm 1 mps 716 mmHg 45%
    12:00 +19°C° 0 mm 1 mps 716 mmHg 40%
    13:00 +20°C° 0 mm 1 mps 716 mmHg 35%
    14:00 +20°C° 0 mm 1 mps 716 mmHg 36%
    15:00 +19°C° 0 mm 1 mps 715 mmHg 36%
    16:00 +19°C° 0 mm 1 mps 715 mmHg 37%
    17:00 +16°C° 0 mm 1 mps 715 mmHg 44%
    18:00 +13°C° 0 mm 1 mps 714 mmHg 52%
    19:00 +10°C° 0 mm 0 mps 714 mmHg 60%
    20:00 +9°C° 0 mm 0 mps 714 mmHg 62%
    21:00 +9°C° 0 mm 0 mps 714 mmHg 65%
    22:00 +8°C° 0 mm 0 mps 714 mmHg 67%
    23:00 +8°C° 0 mm 0 mps 714 mmHg 69%

    25 March, Monday

    Time Temperature Precipitation Wind Pressure Humidity
    00:00 +7°C° 0 mm 0 mps 714 mmHg 70%
    01:00 +8°C° 0 mm 1 mps 714 mmHg 72%
    02:00 +8°C° 0 mm 1 mps 714 mmHg 74%
    03:00 +7°C° 0 mm 1 mps 714 mmHg 75%
    04:00 +7°C° 0 mm 1 mps 714 mmHg 77%
    05:00 +7°C° 0 mm 1 mps 714 mmHg 76%
    06:00 +8°C° 0 mm 1 mps 714 mmHg 75%
    07:00 +9°C° 0 mm 1 mps 714 mmHg 74%
    08:00 +10°C° 0 mm 1 mps 715 mmHg 71%
    09:00 +12°C° 0 mm 2 mps 715 mmHg 67%
    10:00 +14°C° 0 mm 2 mps 715 mmHg 64%
    11:00 +14°C° 0 mm 2 mps 715 mmHg 64%
    12:00 +14°C° 0 mm 2 mps 715 mmHg 64%
    13:00 +15°C° 0 mm 2 mps 715 mmHg 64%
    14:00 +14°C° 0 mm 2 mps 714 mmHg 68%
    15:00 +13°C° 0 mm 2 mps 714 mmHg 72%
    16:00 +12°C° 0 mm 2 mps 713 mmHg 76%
    17:00 +10°C° 0 mm 2 mps 713 mmHg 81%
    18:00 +9°C° 0 mm 2 mps 713 mmHg 86%
    19:00 +8°C° 0 mm 2 mps 713 mmHg 91%
    20:00 +8°C° 0.2 mm 2 mps 713 mmHg 92%
    21:00 +8°C° 0.2 mm 2 mps 714 mmHg 93%
    22:00 +8°C° 0.2 mm 2 mps 714 mmHg 94%
    23:00 +7°C° 0.3 mm 2 mps 714 mmHg 94%

    26 March, Tuesday

    Time Temperature Precipitation Wind Pressure Humidity
    00:00 +7°C° 0.3 mm 2 mps 714 mmHg 93%
    01:00 +5°C° 0.3 mm 3 mps 714 mmHg 93%
    02:00 +5°C° 0.1 mm 3 mps 714 mmHg 93%
    03:00 +4°C° 0.1 mm 3 mps 714 mmHg 92%
    04:00 +4°C° 0.1 mm 3 mps 714 mmHg 91%
    05:00 +4°C° 0.2 mm 3 mps 714 mmHg 88%
    06:00 +3°C° 0.2 mm 4 mps 715 mmHg 85%
    07:00 +3°C° 0.2 mm 4 mps 715 mmHg 83%
    08:00 +2°C° 0.2 mm 5 mps 715 mmHg 79%
    09:00 +2°C° 0.2 mm 5 mps 716 mmHg 76%
    10:00 +3°C° 0.2 mm 6 mps 716 mmHg 72%
    11:00 +3°C° 0 mm 6 mps 716 mmHg 66%
    12:00 +4°C° 0 mm 7 mps 716 mmHg 60%
    13:00 +4°C° 0 mm 7 mps 716 mmHg 55%
    14:00 +4°C° 0 mm 7 mps 716 mmHg 56%
    15:00 +3°C° 0 mm 7 mps 716 mmHg 57%
    16:00 +2°C° 0 mm 8 mps 716 mmHg 58%
    17:00 +2°C° 0.1 mm 7 mps 716 mmHg 64%
    18:00 0°C° 0.1 mm 7 mps 717 mmHg 69%
    19:00 -1°C° 0.1 mm 7 mps 717 mmHg 75%
    20:00 -1°C° 0.1 mm 6 mps 717 mmHg 76%
    21:00 -1°C° 0.1 mm 6 mps 718 mmHg 78%
    22:00 -2°C° 0.1 mm 6 mps 718 mmHg 79%
    23:00 -1°C° 0 mm 5 mps 718 mmHg 81%
    Show more